Iuka, KS

9:51 AM CST on December 08, 2016 (GMT -0600)
Pratt Industrial

Weather History for KPTT - October, 2013

Change the Weather History Date:

Friday, October 18, 2013

  Actual Average (KP28) Record (KP28)
Temperature  
Mean Temperature 37 °F -  
Max Temperature 42 °F 68 °F 92 °F (1943)
Min Temperature 32 °F 44 °F 23 °F (1948)
Degree Days  
Heating Degree Days 28    
Moisture  
Dew Point 33 °F    
Average Humidity 88    
Maximum Humidity 100    
Minimum Humidity 70    
Precipitation  
Precipitation 0.11 in - - ()
Sea Level Pressure  
Sea Level Pressure 30.14 in    
Wind  
Wind Speed 10 mph (North)    
Max Wind Speed 18 mph    
Max Gust Speed 25 mph    
Visibility 8 miles    
Events Rain , Snow    
Averages and records for this station are not official NWS values.
T = Trace of Precipitation, MM = Missing Value Source: NWS Daily Summary

Daily Weather History Graph

Daily Weather History Graph

Search for Another Location

Airport or City:

Trip Planner

Search our weather history database for the weather conditions in past years. The results will help you decide how hot, cold, wet, or windy it might be!

Date:

Astronomy

Oct. 18, 2013 Rise Set
Actual Time 7:46 AM CDT 6:53 PM CDT
Civil Twilight 7:19 AM CDT 7:19 PM CDT
Nautical Twilight 6:49 AM CDT 7:50 PM CDT
Astronomical Twilight 6:19 AM CDT 8:20 PM CDT
Moon 6:44 PM CDT (10/18) 7:23 AM CDT (10/18)
Length of Visible Light 11h 59m
Length of Day
11h 06m
Full, 100% of the Moon is Illuminated
Oct 18
Full
Oct 18
Full
Oct 26
Last Quarter
Nov 3
New
Nov 9
First Quarter

Hourly Weather History & Observations

Time (CDT) Temp. Windchill Dew Point Humidity Pressure Visibility Wind Dir Wind Speed Gust Speed Precip Events Conditions
12:15 AM 42.8 °F 37.0 °F 35.6 °F 76% 30.09 in 10.0 mi NE 10.4 mph - N/A   Clear
12:35 AM 42.8 °F 38.0 °F 35.6 °F 76% 30.08 in 10.0 mi NE 8.1 mph - N/A   Clear
12:55 AM 41.0 °F 34.7 °F 35.6 °F 81% 30.08 in 10.0 mi NE 10.4 mph - N/A   Clear
1:15 AM 41.0 °F 35.2 °F 35.6 °F 81% 30.07 in 10.0 mi NE 9.2 mph - N/A   Clear
1:35 AM 41.0 °F 33.9 °F 35.6 °F 81% 30.06 in 10.0 mi NE 12.7 mph - N/A   Clear
1:55 AM 41.0 °F 36.4 °F 33.8 °F 76% 30.08 in 10.0 mi ENE 6.9 mph - N/A   Clear
2:15 AM 41.0 °F 37.1 °F 33.8 °F 76% 30.09 in 10.0 mi ENE 5.8 mph - N/A   Clear
2:35 AM 41.0 °F 37.1 °F 33.8 °F 76% 30.09 in 10.0 mi NE 5.8 mph - N/A   Clear
2:55 AM 41.0 °F 36.4 °F 33.8 °F 76% 30.08 in 10.0 mi NE 6.9 mph - N/A   Clear
3:15 AM 41.0 °F 35.2 °F 33.8 °F 76% 30.09 in 10.0 mi NE 9.2 mph - N/A   Clear
3:35 AM 41.0 °F 35.8 °F 33.8 °F 76% 30.09 in 10.0 mi NE 8.1 mph - N/A   Clear
3:55 AM 41.0 °F 36.4 °F 33.8 °F 76% 30.09 in 10.0 mi NE 6.9 mph - N/A   Clear
4:15 AM 41.0 °F 35.2 °F 33.8 °F 76% 30.09 in 10.0 mi NE 9.2 mph - N/A   Scattered Clouds
4:35 AM 41.0 °F 34.3 °F 33.8 °F 76% 30.08 in 10.0 mi NE 11.5 mph 17.3 mph N/A   Scattered Clouds
4:55 AM 41.0 °F 35.8 °F 33.8 °F 76% 30.09 in 10.0 mi NE 8.1 mph - N/A   Scattered Clouds
5:15 AM 41.0 °F 35.8 °F 33.8 °F 76% 30.11 in 10.0 mi NNE 8.1 mph - N/A   Clear
5:35 AM 41.0 °F 35.2 °F 33.8 °F 76% 30.09 in 10.0 mi NE 9.2 mph - N/A   Clear
5:55 AM 41.0 °F 34.3 °F 33.8 °F 76% 30.09 in 10.0 mi NNE 11.5 mph - N/A   Clear
6:15 AM 41.0 °F 34.7 °F 32.0 °F 70% 30.09 in 10.0 mi NE 10.4 mph - N/A   Clear
6:35 AM 41.0 °F 35.8 °F 32.0 °F 70% 30.10 in 10.0 mi ENE 8.1 mph - N/A   Light Drizzle
6:55 AM 39.2 °F 30.2 °F 33.8 °F 81% 30.08 in 10.0 mi NNE 17.3 mph - N/A   Light Drizzle
7:15 AM 39.2 °F 29.8 °F 32.0 °F 75% 30.07 in 10.0 mi NE 18.4 mph 21.9 mph N/A   Scattered Clouds
7:35 AM 39.2 °F 30.5 °F 32.0 °F 75% 30.07 in 10.0 mi NE 16.1 mph 25.3 mph N/A   Scattered Clouds
7:55 AM 39.2 °F 30.2 °F 32.0 °F 75% 30.09 in 10.0 mi NNE 17.3 mph 21.9 mph N/A   Mostly Cloudy
8:15 AM 37.4 °F 29.8 °F 32.0 °F 81% 30.12 in 10.0 mi NNE 11.5 mph 16.1 mph N/A Rain Light Rain
8:35 AM 37.4 °F 28.9 °F 32.0 °F 81% 30.12 in 5.0 mi NE 13.8 mph 21.9 mph N/A Snow Light Snow
8:55 AM 35.6 °F 27.1 °F 32.0 °F 87% 30.14 in 10.0 mi NNE 12.7 mph 17.3 mph 0.02 in Rain Light Rain
9:15 AM 35.6 °F 27.1 °F 33.8 °F 93% 30.15 in 10.0 mi NE 12.7 mph - N/A Rain Light Rain
9:35 AM 35.6 °F 27.1 °F 33.8 °F 93% 30.16 in 7.0 mi NE 12.7 mph - N/A Rain Light Rain
9:55 AM 35.6 °F 27.5 °F 33.8 °F 93% 30.16 in 10.0 mi NE 11.5 mph - N/A   Light Drizzle
10:15 AM 35.6 °F 27.5 °F 33.8 °F 93% 30.16 in 5.0 mi NNE 11.5 mph 16.1 mph N/A Rain Light Rain
10:35 AM 35.6 °F 27.1 °F 33.8 °F 93% 30.16 in 5.0 mi NNE 12.7 mph - 0.01 in Rain Light Rain
10:55 AM 35.6 °F 27.5 °F 33.8 °F 93% 30.18 in 5.0 mi NNE 11.5 mph - 0.01 in Rain Light Rain
11:15 AM 33.8 °F 25.3 °F 33.8 °F 100% 30.20 in 3.0 mi North 11.5 mph - 0.01 in Snow Light Snow
11:35 AM 33.8 °F 27.0 °F 32.0 °F 93% 30.19 in 2.0 mi North 8.1 mph - 0.02 in Snow Light Snow
11:55 AM 32.0 °F 24.8 °F 32.0 °F 100% 30.19 in 2.0 mi North 8.1 mph - 0.04 in Snow Light Snow
12:15 PM 32.0 °F 24.8 °F 32.0 °F 100% 30.20 in 2.0 mi North 8.1 mph - N/A Snow Light Snow
12:35 PM 32.0 °F 24.2 °F 32.0 °F 100% 30.19 in 1.0 mi North 9.2 mph - 0.02 in Snow Light Snow
12:55 PM 32.0 °F 23.6 °F 32.0 °F 100% 30.20 in 3.0 mi North 10.4 mph - 0.03 in Snow Light Snow
1:15 PM 32.0 °F 24.2 °F 32.0 °F 100% 30.20 in 2.5 mi North 9.2 mph - 0.01 in Snow Light Snow
1:35 PM 32.0 °F 24.8 °F 32.0 °F 100% 30.20 in 1.5 mi North 8.1 mph - 0.01 in Snow Light Snow
1:55 PM 32.0 °F 24.2 °F 32.0 °F 100% 30.19 in 3.0 mi North 9.2 mph - 0.01 in Snow Light Snow
2:15 PM 32.0 °F 24.2 °F 32.0 °F 100% 30.19 in 3.0 mi NNW 9.2 mph - N/A Snow Light Snow
2:35 PM 33.8 °F 25.8 °F 33.8 °F 100% 30.18 in 10.0 mi NNW 10.4 mph - N/A   Overcast
2:55 PM 33.8 °F 24.8 °F 33.8 °F 100% 30.17 in 10.0 mi NNW 12.7 mph - N/A Rain Light Rain
3:15 PM 33.8 °F 24.3 °F 33.8 °F 100% 30.17 in 5.0 mi North 13.8 mph - N/A Rain Light Rain
3:35 PM 35.6 °F 27.5 °F 33.8 °F 93% 30.16 in 7.0 mi North 11.5 mph - N/A Rain Light Rain
3:55 PM 35.6 °F 27.5 °F 35.6 °F 100% 30.16 in 10.0 mi North 11.5 mph - N/A   Mostly Cloudy
4:15 PM 37.4 °F 30.3 °F 35.6 °F 93% 30.16 in 10.0 mi North 10.4 mph 16.1 mph N/A   Overcast
4:35 PM 35.6 °F 26.6 °F 33.8 °F 93% 30.16 in 10.0 mi North 13.8 mph 17.3 mph N/A   Mostly Cloudy
4:55 PM 37.4 °F 29.8 °F 33.8 °F 87% 30.16 in 10.0 mi North 11.5 mph - N/A   Mostly Cloudy
5:15 PM 37.4 °F 30.8 °F 32.0 °F 81% 30.16 in 10.0 mi NNW 9.2 mph - N/A   Scattered Clouds
5:35 PM 37.4 °F 29.8 °F 32.0 °F 81% 30.16 in 10.0 mi NNW 11.5 mph - N/A   Scattered Clouds
5:55 PM 37.4 °F 30.8 °F 32.0 °F 81% 30.16 in 10.0 mi NNW 9.2 mph - N/A   Scattered Clouds
6:15 PM 35.6 °F 31.7 °F 32.0 °F 87% 30.15 in 10.0 mi NW 4.6 mph - N/A   Clear
6:35 PM 37.4 °F 32.8 °F 32.0 °F 81% 30.16 in 10.0 mi NW 5.8 mph - N/A   Clear
6:55 PM 35.6 °F 30.7 °F 32.0 °F 87% 30.16 in 10.0 mi West 5.8 mph - N/A   Clear
7:15 PM 33.8 °F 28.6 °F 32.0 °F 93% 30.16 in 10.0 mi West 5.8 mph - N/A   Clear
7:35 PM 33.8 °F 29.6 °F 32.0 °F 93% 30.17 in 10.0 mi West 4.6 mph - N/A   Clear
7:55 PM 33.8 °F 30.8 °F 32.0 °F 93% 30.17 in 10.0 mi WSW 3.5 mph - N/A   Clear
8:15 PM 32.0 °F 26.4 °F 32.0 °F 100% 30.16 in 10.0 mi SSW 5.8 mph - N/A   Clear
8:35 PM 32.0 °F 26.4 °F 30.2 °F 93% 30.16 in 10.0 mi SSW 5.8 mph - N/A   Clear
8:55 PM 32.0 °F 26.4 °F 32.0 °F 100% 30.17 in 10.0 mi SW 5.8 mph - N/A   Clear
9:15 PM 32.0 °F 26.4 °F 32.0 °F 100% 30.16 in 10.0 mi SSW 5.8 mph - N/A   Clear
9:35 PM 32.0 °F 25.6 °F 32.0 °F 100% 30.16 in 10.0 mi SW 6.9 mph - N/A   Clear
9:55 PM 32.0 °F 25.6 °F 32.0 °F 100% 30.16 in 10.0 mi SW 6.9 mph - N/A   Clear
10:15 PM 32.0 °F 24.2 °F 32.0 °F 100% 30.16 in 10.0 mi SW 9.2 mph - N/A   Clear
10:35 PM 32.0 °F 24.8 °F 32.0 °F 100% 30.16 in 10.0 mi SW 8.1 mph - N/A   Clear
10:55 PM 32.0 °F 25.6 °F 32.0 °F 100% 30.15 in 10.0 mi SW 6.9 mph - N/A   Clear
11:15 PM 32.0 °F 25.6 °F 32.0 °F 100% 30.15 in 10.0 mi WSW 6.9 mph - N/A   Clear
11:35 PM 32.0 °F 25.6 °F 32.0 °F 100% 30.15 in 10.0 mi WSW 6.9 mph - N/A   Clear
11:55 PM 32.0 °F 24.8 °F 32.0 °F 100% 30.14 in 10.0 mi WSW 8.1 mph - N/A   Clear